Marion, VA

10:37 PM EDT on May 27, 2017 (GMT -0400)
Mountain Empire

Weather History for KMKJ - March, 2014

Change the Weather History Date:

Sunday, March 16, 2014

  Actual Average (KBLF) Record (KBLF)
Temperature  
Mean Temperature 38 °F -  
Max Temperature 45 °F 50 °F 73 °F (1995)
Min Temperature 32 °F 31 °F 13 °F (1970)
Degree Days  
Heating Degree Days 26    
Moisture  
Dew Point 28 °F    
Average Humidity 68    
Maximum Humidity 100    
Minimum Humidity 48    
Precipitation  
Precipitation 0.05 in - - ()
Sea Level Pressure  
Sea Level Pressure 29.95 in    
Wind  
Wind Speed 5 mph (East)    
Max Wind Speed 18 mph    
Max Gust Speed 25 mph    
Visibility 8 miles    
Events Rain    
Averages and records for this station are not official NWS values.
T = Trace of Precipitation, MM = Missing Value Source: NWS Daily Summary

Daily Weather History Graph

Daily Weather History Graph

Search for Another Location

Airport or City:

Trip Planner

Search our weather history database for the weather conditions in past years. The results will help you decide how hot, cold, wet, or windy it might be!

Date:

Astronomy

Mar. 16, 2014 Rise Set
Actual Time 7:34 AM EDT 7:33 PM EDT
Civil Twilight 7:09 AM EDT 7:59 PM EDT
Nautical Twilight 6:38 AM EDT 8:29 PM EDT
Astronomical Twilight 6:08 AM EDT 9:00 PM EDT
Moon 7:48 PM EDT (3/16) 7:18 AM EDT (3/16)
Length of Visible Light 12h 50m
Length of Day
11h 58m
Full, 100% of the Moon is Illuminated
Mar 16
Full
Mar 16
Full
Mar 23
Last Quarter
Mar 30
New
Apr 7
First Quarter

Hourly Weather History & Observations

Time (EDT) Temp. Windchill Dew Point Humidity Pressure Visibility Wind Dir Wind Speed Gust Speed Precip Events Conditions
12:15 AM 35.8 °F - 25.7 °F 67% 30.10 in 10.0 mi Calm Calm - N/A   Clear
12:35 AM 34.5 °F - 25.9 °F 71% 30.09 in 10.0 mi Calm Calm - N/A   Clear
12:55 AM 34.2 °F - 25.7 °F 71% 30.09 in 10.0 mi Calm Calm - N/A   Clear
1:15 AM 34.0 °F - 26.1 °F 73% 30.08 in 10.0 mi Calm Calm - N/A   Clear
1:35 AM 33.6 °F - 26.1 °F 74% 30.08 in 10.0 mi Calm Calm - N/A   Clear
1:55 AM 33.6 °F - 26.2 °F 74% 30.08 in 10.0 mi Calm Calm - N/A   Clear
2:15 AM 32.4 °F 29.1 °F 26.1 °F 78% 30.07 in 10.0 mi ENE 3.5 mph - N/A   Clear
2:35 AM 33.4 °F - 25.7 °F 73% 30.07 in 10.0 mi Calm Calm - N/A   Clear
2:55 AM 33.8 °F - 25.5 °F 72% 30.06 in 10.0 mi Calm Calm - N/A   Clear
3:15 AM 33.4 °F 30.4 °F 25.5 °F 73% 30.06 in 10.0 mi ENE 3.5 mph - N/A   Clear
3:35 AM 34.0 °F - 25.7 °F 72% 30.05 in 10.0 mi Calm Calm - N/A   Clear
3:55 AM 34.5 °F - 25.9 °F 71% 30.04 in 10.0 mi Calm Calm - N/A   Clear
4:15 AM 35.2 °F - 25.5 °F 68% 30.03 in 10.0 mi Calm Calm - N/A   Clear
4:35 AM 36.0 °F - 26.1 °F 67% 30.03 in 10.0 mi Calm Calm - N/A   Clear
4:55 AM 35.6 °F - 26.2 °F 69% 30.03 in 10.0 mi Calm Calm - N/A   Clear
5:15 AM 35.1 °F 32.2 °F 26.1 °F 70% 30.03 in 10.0 mi ESE 3.5 mph - N/A   Clear
5:35 AM 36.3 °F 33.7 °F 25.7 °F 65% 30.02 in 10.0 mi East 3.5 mph - N/A   Clear
5:55 AM 36.9 °F 34.3 °F 25.3 °F 63% 30.03 in 10.0 mi East 3.5 mph - N/A   Clear
6:15 AM 36.3 °F 32.5 °F 25.3 °F 64% 30.02 in 10.0 mi ESE 4.6 mph - N/A   Scattered Clouds
6:35 AM 36.5 °F 32.7 °F 25.3 °F 64% 30.02 in 10.0 mi East 4.6 mph - N/A   Scattered Clouds
6:55 AM 37.4 °F 34.9 °F 24.4 °F 60% 30.02 in 10.0 mi ESE 3.5 mph - N/A   Mostly Cloudy
7:15 AM 36.9 °F - 25.2 °F 63% 30.02 in 10.0 mi Calm Calm - N/A   Scattered Clouds
7:35 AM 37.8 °F - 25.0 °F 60% 30.02 in 10.0 mi Calm Calm - N/A   Clear
7:55 AM 37.8 °F - 24.8 °F 60% 30.02 in 10.0 mi Calm Calm - N/A   Clear
8:15 AM 37.2 °F 34.7 °F 25.5 °F 63% 30.02 in 10.0 mi East 3.5 mph - N/A   Scattered Clouds
8:35 AM 38.7 °F 35.2 °F 25.0 °F 58% 30.02 in 10.0 mi ESE 4.6 mph - N/A   Scattered Clouds
8:55 AM 38.7 °F 35.2 °F 25.9 °F 60% 30.02 in 10.0 mi East 4.6 mph - N/A   Scattered Clouds
9:15 AM 39.7 °F 34.3 °F 25.5 °F 57% 30.01 in 10.0 mi ENE 8.1 mph - N/A   Mostly Cloudy
9:35 AM 39.9 °F 36.7 °F 26.1 °F 58% 30.01 in 10.0 mi East 4.6 mph - N/A   Overcast
9:55 AM 40.5 °F 34.1 °F 26.6 °F 58% 30.00 in 10.0 mi ENE 10.4 mph - N/A   Overcast
10:15 AM 40.6 °F 34.3 °F 26.4 °F 57% 30.01 in 10.0 mi ENE 10.4 mph - N/A   Overcast
10:35 AM 41.9 °F 36.3 °F 26.6 °F 55% 30.02 in 10.0 mi ENE 9.2 mph - N/A   Overcast
10:55 AM 42.1 °F 37.1 °F 27.5 °F 56% 30.02 in 10.0 mi ENE 8.1 mph - N/A   Overcast
11:15 AM 43.5 °F 38.9 °F 26.4 °F 51% 30.02 in 10.0 mi NE 8.1 mph - N/A   Overcast
11:35 AM 43.7 °F 41.1 °F 25.9 °F 50% 30.03 in 10.0 mi ENE 4.6 mph - N/A   Overcast
11:55 AM 44.8 °F 39.4 °F 25.9 °F 48% 30.00 in 10.0 mi NE 10.4 mph - N/A   Overcast
12:15 PM 45.0 °F 41.2 °F 28.4 °F 52% 30.01 in 10.0 mi ENE 6.9 mph - N/A   Overcast
12:35 PM 45.3 °F 40.1 °F 31.3 °F 58% 30.00 in 10.0 mi ESE 10.4 mph 20.7 mph N/A Rain Light Rain
12:55 PM 44.1 °F 38.6 °F 32.5 °F 64% 29.99 in 10.0 mi ESE 10.4 mph 19.6 mph N/A Rain Rain
1:15 PM 42.4 °F 36.1 °F 32.7 °F 68% 29.98 in 7.0 mi ESE 11.5 mph 19.6 mph N/A Rain Light Rain
1:35 PM 41.0 °F 34.7 °F 34.3 °F 77% 29.97 in 10.0 mi ESE 10.4 mph 17.3 mph N/A Rain Light Rain
1:55 PM 39.9 °F 31.8 °F 35.6 °F 85% 29.95 in 10.0 mi East 15.0 mph - N/A Rain Light Rain
2:15 PM 38.5 °F 31.6 °F 36.3 °F 92% 29.92 in 10.0 mi East 10.4 mph - 0.01 in Rain Light Rain
2:35 PM 37.9 °F 29.6 °F 37.9 °F 100% 29.90 in 10.0 mi East 13.8 mph 18.4 mph 0.01 in Rain Rain
2:55 PM 37.9 °F 29.2 °F 37.9 °F 100% 29.89 in 10.0 mi East 15.0 mph 20.7 mph 0.01 in   Light Drizzle
3:15 PM 38.3 °F 30.5 °F 38.3 °F 100% 29.89 in 10.0 mi East 12.7 mph 16.1 mph N/A   Overcast
3:35 PM - - - N/A% 29.87 in 10.0 mi ENE 11.5 mph 16.1 mph N/A   Drizzle
3:55 PM - - - N/A% 29.86 in 10.0 mi East 11.5 mph - N/A   Light Drizzle
4:15 PM - - - N/A% 29.85 in 10.0 mi East 18.4 mph 23.0 mph N/A   Overcast
4:35 PM - - - N/A% 29.86 in 7.0 mi ENE 15.0 mph 23.0 mph N/A Rain Light Rain
4:55 PM - - - N/A% 29.84 in 2.5 mi East 16.1 mph 20.7 mph 0.01 in Rain Rain
5:15 PM - - - N/A% 29.83 in 3.0 mi ENE 15.0 mph 19.6 mph 0.01 in Rain Light Rain
5:35 PM - - - N/A% 29.83 in 4.0 mi ENE 17.3 mph 23.0 mph 0.01 in Rain Light Rain
5:55 PM - - - N/A% 29.83 in 4.0 mi ENE 16.1 mph 20.7 mph 0.01 in Rain Light Rain
6:15 PM - - - N/A% 29.82 in 4.0 mi ENE 18.4 mph 25.3 mph N/A Rain Light Rain
6:35 PM - - - N/A% 29.82 in 3.0 mi ENE 16.1 mph 21.9 mph N/A Rain Light Rain
6:55 PM - - - N/A% 29.81 in 4.0 mi ENE 15.0 mph 19.6 mph N/A Rain Light Rain
7:15 PM - - - N/A% 29.82 in 4.0 mi East 13.8 mph - N/A Rain Light Rain
7:35 PM - - - N/A% 29.83 in 5.0 mi ENE 15.0 mph - N/A Rain Light Rain
7:55 PM - - - N/A% 29.84 in 4.0 mi ENE 15.0 mph 20.7 mph N/A Rain Light Rain
8:15 PM - - - N/A% 29.82 in 4.0 mi ENE 15.0 mph 21.9 mph N/A Rain Light Rain
8:35 PM - - - N/A% 29.83 in 4.0 mi ENE 12.7 mph 19.6 mph N/A Rain Rain
8:55 PM - - - N/A% 29.83 in 5.0 mi ENE 15.0 mph 19.6 mph N/A Rain Light Rain
9:15 PM - - - N/A% 29.83 in 5.0 mi ENE 13.8 mph 20.7 mph N/A Rain Light Rain
9:35 PM - - - N/A% 29.83 in 4.0 mi ENE 16.1 mph 20.7 mph N/A   Drizzle
9:55 PM - - - N/A% 29.84 in 4.0 mi East 13.8 mph 19.6 mph N/A Rain Light Rain
10:15 PM - - - N/A% 29.84 in 3.0 mi ENE 13.8 mph - 0.01 in Rain Light Rain
10:35 PM - - - N/A% 29.83 in 4.0 mi East 13.8 mph 19.6 mph 0.02 in Rain Light Rain
10:55 PM - - - N/A% 29.84 in 7.0 mi Calm Calm - 0.02 in   Light Drizzle
11:15 PM - - - N/A% 29.84 in 4.0 mi Calm Calm - N/A Rain Light Rain
11:35 PM - - - N/A% 29.84 in 5.0 mi Calm Calm - N/A Rain Light Rain
11:55 PM - - - N/A% 29.83 in 7.0 mi Calm Calm - N/A Rain Rain